Location: Potomac
(46.8816°N, 113.5795°W)
Time: 22:12:38
(UTC+00:00)

NANOSAT C BR1 - Pass Details

Date: 01 July 2022
Orbit: 584 x 599 km, 98.0° (Epoch: 18 August)

Event Time Altitude Azimuth Distance (km) Brightness Sun altitude
Rises 09:12:31 0° 21° (NNE) 2,851 ? -16.9°
Reaches altitude 10° 09:14:50 10° 29° (NNE) 1,946 ? -16.7°
Maximum altitude 09:18:45 37° 98° (E) 945 ? -16.4°
Enters shadow 09:21:24 18° 156° (SSE) 1,483 ? -16.2°
